CSH9251 ZSSS-ZJHK

Flight info

Callsign CSH9251
Flight time 2h 15m
Altitude 40100
Route NXD61D NXD W131 AKDIM A470 DUBGO W134 ELNEX A599 PLT W19 NOMAR W18 NLG W23 ZUH R200 BIGRO G221 GIVIV W605 DOMGO DOMGO8XA
Aircraft A359/H-SDE2E3GHIJ3J4J5LM1ORWXY/LB1D1

Departure

Time 2026-04-21 04:41
Airport Shanghai Hongqiao International Airport (ZSSS)

Arrival

Time 2026-04-21 06:57
Airport Haikou Meilan International Airport (ZJHK)
Time Latitude Longitude Altitude Speed Heading
2026-04-21 04:18 31.19594 121.32546 25 ft 0 kts 267°
2026-04-21 04:32 31.19595 121.32560 29 ft 3 kts 272°
2026-04-21 04:32 31.19595 121.32582 28 ft 3 kts 260°
2026-04-21 04:32 31.19597 121.32604 31 ft 3 kts 270°
2026-04-21 04:32 31.19597 121.32620 31 ft 2 kts 266°
2026-04-21 04:33 31.19599 121.32638 31 ft 3 kts 242°
2026-04-21 04:33 31.19607 121.32652 31 ft 3 kts 212°
2026-04-21 04:33 31.19623 121.32661 31 ft 3 kts 191°
2026-04-21 04:33 31.19643 121.32664 31 ft 3 kts 180°
2026-04-21 04:34 31.19653 121.32664 31 ft 0 kts 178°
2026-04-21 04:36 31.19652 121.32664 31 ft 1 kts 178°
2026-04-21 04:37 31.19618 121.32665 31 ft 8 kts 177°
2026-04-21 04:37 31.19571 121.32709 27 ft 11 kts 114°
2026-04-21 04:37 31.19577 121.32810 25 ft 15 kts 85°
2026-04-21 04:37 31.19588 121.32945 28 ft 16 kts 67°
2026-04-21 04:38 31.19686 121.32979 28 ft 17 kts 356°
2026-04-21 04:38 31.19825 121.32972 28 ft 23 kts 358°
2026-04-21 04:38 31.20001 121.32963 29 ft 28 kts 357°
2026-04-21 04:38 31.20208 121.32952 28 ft 32 kts 358°
2026-04-21 04:39 31.20426 121.32940 28 ft 25 kts 357°
2026-04-21 04:39 31.20617 121.32929 28 ft 29 kts 357°
2026-04-21 04:39 31.20836 121.32917 28 ft 33 kts 357°
2026-04-21 04:39 31.21080 121.32904 27 ft 37 kts 357°
2026-04-21 04:40 31.21258 121.32897 28 ft 11 kts 10°
2026-04-21 04:40 31.21283 121.32953 29 ft 10 kts 84°
2026-04-21 04:40 31.21289 121.33055 27 ft 15 kts 86°
2026-04-21 04:40 31.21251 121.33165 29 ft 15 kts 154°
2026-04-21 04:41 31.21094 121.33179 26 ft 49 kts 178°
2026-04-21 04:41 31.20488 121.33212 29 ft 123 kts 177°
2026-04-21 04:41 31.19440 121.33269 229 ft 167 kts 174°
2026-04-21 04:41 31.18318 121.33325 1262 ft 153 kts 171°
2026-04-21 04:42 31.17229 121.33397 2014 ft 161 kts 172°
2026-04-21 04:42 31.16100 121.33463 2692 ft 163 kts 173°
2026-04-21 04:42 31.14956 121.33524 3326 ft 171 kts 173°
2026-04-21 04:42 31.13678 121.33608 3638 ft 199 kts 174°
2026-04-21 04:43 31.12205 121.33698 4004 ft 226 kts 175°
2026-04-21 04:43 31.10544 121.33790 4495 ft 249 kts 177°
2026-04-21 04:43 31.08753 121.33884 4841 ft 265 kts 178°
2026-04-21 04:43 31.06900 121.33921 4901 ft 267 kts 185°
2026-04-21 04:44 31.05163 121.33245 4905 ft 265 kts 215°
2026-04-21 04:44 31.04010 121.31602 4902 ft 266 kts 247°
2026-04-21 04:44 31.03794 121.29485 4907 ft 266 kts 277°
2026-04-21 04:44 31.04164 121.27367 4904 ft 268 kts 282°
2026-04-21 04:45 31.04599 121.25260 4904 ft 268 kts 282°
2026-04-21 04:45 31.05023 121.23138 4901 ft 268 kts 282°
2026-04-21 04:45 31.05433 121.21019 5147 ft 269 kts 281°
2026-04-21 04:45 31.05834 121.18888 5997 ft 266 kts 281°
2026-04-21 04:46 31.06219 121.16810 7171 ft 261 kts 281°
2026-04-21 04:46 31.06602 121.14728 8230 ft 263 kts 281°
2026-04-21 04:46 31.06832 121.12612 9247 ft 266 kts 270°
2026-04-21 04:46 31.06553 121.10464 10268 ft 269 kts 258°
2026-04-21 04:47 31.06052 121.08288 10861 ft 288 kts 256°
2026-04-21 04:47 31.05476 121.05962 11303 ft 310 kts 256°
2026-04-21 04:47 31.04853 121.03474 11752 ft 328 kts 255°
2026-04-21 04:47 31.04201 121.00884 12427 ft 337 kts 255°
2026-04-21 04:48 31.03544 120.98270 13176 ft 342 kts 255°
2026-04-21 04:48 31.02868 120.95556 13973 ft 346 kts 255°
2026-04-21 04:48 31.02204 120.92877 14653 ft 350 kts 255°
2026-04-21 04:48 31.01526 120.90135 15356 ft 353 kts 255°
2026-04-21 04:49 31.00854 120.87415 16054 ft 356 kts 255°
2026-04-21 04:49 31.00169 120.84636 16781 ft 358 kts 255°
2026-04-21 04:49 30.99477 120.81835 17496 ft 361 kts 255°
2026-04-21 04:49 30.98780 120.79015 18237 ft 364 kts 255°
2026-04-21 04:50 30.98077 120.76177 18881 ft 367 kts 254°
2026-04-21 04:50 30.97365 120.73303 19491 ft 370 kts 254°
2026-04-21 04:50 30.96648 120.70407 20115 ft 374 kts 254°
2026-04-21 04:50 30.95922 120.67480 20734 ft 377 kts 254°
2026-04-21 04:51 30.95190 120.64534 21369 ft 381 kts 254°
2026-04-21 04:51 30.94450 120.61558 21993 ft 384 kts 254°
2026-04-21 04:51 30.93701 120.58547 22625 ft 388 kts 254°
2026-04-21 04:51 30.92945 120.55516 23256 ft 392 kts 254°
2026-04-21 04:52 30.92181 120.52450 23856 ft 396 kts 254°
2026-04-21 04:52 30.91375 120.49369 24373 ft 400 kts 252°
2026-04-21 04:52 30.90322 120.46396 24905 ft 405 kts 245°
2026-04-21 04:52 30.88872 120.43564 25437 ft 411 kts 237°
2026-04-21 04:53 30.87033 120.40985 25992 ft 417 kts 229°
2026-04-21 04:53 30.84845 120.38722 26503 ft 424 kts 221°
2026-04-21 04:53 30.82477 120.36637 27026 ft 429 kts 219°
2026-04-21 04:53 30.80028 120.34625 27538 ft 434 kts 218°
2026-04-21 04:54 30.78337 120.33276 27886 ft 437 kts 218°
2026-04-21 04:54 30.75819 120.31286 28395 ft 440 kts 217°
2026-04-21 04:54 30.72448 120.28612 29055 ft 446 kts 218°
2026-04-21 04:54 30.69877 120.26550 29530 ft 450 kts 218°
2026-04-21 04:55 30.68170 120.25173 29836 ft 453 kts 218°
2026-04-21 04:55 30.65581 120.23073 30279 ft 456 kts 218°
2026-04-21 04:55 30.62969 120.20948 30682 ft 460 kts 218°
2026-04-21 04:55 30.60347 120.18812 31106 ft 462 kts 218°
2026-04-21 04:56 30.57710 120.16666 31533 ft 464 kts 219°
2026-04-21 04:56 30.55056 120.14508 31939 ft 466 kts 219°
2026-04-21 04:56 30.52393 120.12344 32322 ft 468 kts 219°
2026-04-21 04:56 30.49715 120.10171 32709 ft 471 kts 219°
2026-04-21 04:57 30.47028 120.07992 33061 ft 473 kts 219°
2026-04-21 04:57 30.44323 120.05802 33469 ft 474 kts 219°
2026-04-21 04:57 30.41566 120.03718 34013 ft 473 kts 217°
2026-04-21 04:57 30.38743 120.01764 34471 ft 472 kts 215°
2026-04-21 04:58 30.35898 119.99887 34895 ft 472 kts 215°
2026-04-21 04:58 30.33032 119.98034 35336 ft 470 kts 215°
2026-04-21 04:58 30.30181 119.96195 35744 ft 469 kts 215°
2026-04-21 04:58 30.27336 119.94347 36156 ft 467 kts 216°
2026-04-21 04:59 30.24512 119.92496 36562 ft 465 kts 216°
2026-04-21 04:59 30.21704 119.90644 36964 ft 464 kts 217°
2026-04-21 04:59 30.18912 119.88792 37379 ft 462 kts 217°
2026-04-21 04:59 30.16129 119.86947 37767 ft 461 kts 217°
2026-04-21 05:00 30.13387 119.85128 38154 ft 459 kts 217°
2026-04-21 05:00 30.10620 119.83292 38565 ft 457 kts 217°
2026-04-21 05:00 30.05123 119.79648 39227 ft 454 kts 217°
2026-04-21 05:01 30.02402 119.77830 39494 ft 452 kts 218°
2026-04-21 05:01 29.99680 119.76001 39751 ft 452 kts 218°
2026-04-21 05:01 29.96970 119.74175 39999 ft 451 kts 217°
2026-04-21 05:01 29.94250 119.72341 40146 ft 453 kts 217°
2026-04-21 05:02 29.88820 119.68690 40145 ft 452 kts 217°
2026-04-21 05:02 29.83446 119.64972 40140 ft 449 kts 219°
2026-04-21 05:03 29.78303 119.61005 40139 ft 447 kts 221°
2026-04-21 05:03 29.73174 119.56934 40128 ft 447 kts 221°
2026-04-21 05:04 29.68047 119.52889 40128 ft 447 kts 220°
2026-04-21 05:04 29.63076 119.48651 40122 ft 441 kts 228°
2026-04-21 05:05 29.58833 119.43627 40120 ft 437 kts 232°
2026-04-21 05:05 29.54752 119.38449 40118 ft 437 kts 233°
2026-04-21 05:06 29.50699 119.33248 40117 ft 437 kts 233°
2026-04-21 05:06 29.46636 119.28053 40112 ft 437 kts 232°
2026-04-21 05:07 29.42558 119.22865 40111 ft 437 kts 232°
2026-04-21 05:07 29.38482 119.17696 40109 ft 437 kts 232°
2026-04-21 05:08 29.34417 119.12551 40102 ft 437 kts 232°
2026-04-21 05:08 29.30327 119.07382 40099 ft 438 kts 232°
2026-04-21 05:09 29.26246 119.02233 40102 ft 438 kts 232°
2026-04-21 05:09 29.22130 118.97051 40100 ft 438 kts 232°
2026-04-21 05:10 29.18027 118.91893 40097 ft 438 kts 232°
2026-04-21 05:10 29.13926 118.86745 40089 ft 438 kts 232°
2026-04-21 05:11 29.09820 118.81584 40089 ft 438 kts 232°
2026-04-21 05:11 29.05716 118.76433 40087 ft 438 kts 231°
2026-04-21 05:12 29.01595 118.71295 40091 ft 439 kts 231°
2026-04-21 05:12 28.97468 118.66151 40070 ft 439 kts 231°
2026-04-21 05:13 28.93370 118.61043 40078 ft 439 kts 231°
2026-04-21 05:13 28.89241 118.55898 40075 ft 439 kts 231°
2026-04-21 05:14 28.85110 118.50758 40071 ft 439 kts 231°
2026-04-21 05:14 28.80976 118.45622 40068 ft 440 kts 231°
2026-04-21 05:15 28.76835 118.40484 40063 ft 439 kts 231°
2026-04-21 05:15 28.72700 118.35359 40061 ft 439 kts 231°
2026-04-21 05:16 28.68556 118.30228 40059 ft 440 kts 231°
2026-04-21 05:16 28.64408 118.25100 40056 ft 440 kts 231°
2026-04-21 05:17 28.60265 118.19988 40053 ft 440 kts 231°
2026-04-21 05:17 28.56107 118.14860 40048 ft 440 kts 231°
2026-04-21 05:18 28.51980 118.09777 40045 ft 440 kts 231°
2026-04-21 05:18 28.47828 118.04667 40043 ft 440 kts 231°
2026-04-21 05:19 28.43669 117.99558 40038 ft 440 kts 231°
2026-04-21 05:19 28.39486 117.94479 40038 ft 441 kts 230°
2026-04-21 05:20 28.35231 117.89451 40035 ft 441 kts 230°
2026-04-21 05:20 28.30962 117.84437 40045 ft 441 kts 230°
2026-04-21 05:21 28.26701 117.79423 40042 ft 441 kts 230°
2026-04-21 05:21 28.22443 117.74412 40038 ft 441 kts 230°
2026-04-21 05:22 28.18183 117.69403 40036 ft 441 kts 230°
2026-04-21 05:22 28.13926 117.64398 40032 ft 442 kts 230°
2026-04-21 05:23 28.09649 117.59380 40037 ft 442 kts 230°
2026-04-21 05:23 28.05403 117.54405 40036 ft 442 kts 230°
2026-04-21 05:24 28.01127 117.49403 40037 ft 442 kts 231°
2026-04-21 05:24 27.96880 117.44439 40031 ft 436 kts 231°
2026-04-21 05:25 27.92671 117.39516 40028 ft 434 kts 232°
2026-04-21 05:25 27.88509 117.34562 40040 ft 435 kts 232°
2026-04-21 05:26 27.84332 117.29621 40039 ft 435 kts 232°
2026-04-21 05:26 27.80127 117.24705 40035 ft 435 kts 232°
2026-04-21 05:27 27.75899 117.19803 40029 ft 436 kts 231°
2026-04-21 05:27 27.71665 117.14889 40035 ft 437 kts 232°
2026-04-21 05:28 27.67424 117.09967 40031 ft 437 kts 232°
2026-04-21 05:28 27.63189 117.05059 40025 ft 437 kts 231°
2026-04-21 05:29 27.58969 117.00175 40027 ft 437 kts 231°
2026-04-21 05:29 27.54723 116.95266 40029 ft 438 kts 231°
2026-04-21 05:30 27.50474 116.90349 40021 ft 438 kts 232°
2026-04-21 05:30 27.46252 116.85409 40025 ft 438 kts 232°
2026-04-21 05:31 27.42031 116.80461 40012 ft 438 kts 232°
2026-04-21 05:31 27.37803 116.75516 40026 ft 438 kts 232°
2026-04-21 05:32 27.33566 116.70571 40022 ft 439 kts 232°
2026-04-21 05:32 27.29328 116.65632 40021 ft 439 kts 232°
2026-04-21 05:33 27.25108 116.60722 40026 ft 440 kts 232°
2026-04-21 05:33 27.20857 116.55775 40021 ft 440 kts 232°
2026-04-21 05:34 27.16675 116.50770 40021 ft 439 kts 233°
2026-04-21 05:34 27.12530 116.45727 40020 ft 439 kts 233°
2026-04-21 05:35 27.08404 116.40706 40022 ft 440 kts 233°
2026-04-21 05:35 27.04243 116.35669 40019 ft 440 kts 233°
2026-04-21 05:36 27.00070 116.30632 40020 ft 441 kts 233°
2026-04-21 05:36 26.95889 116.25594 40018 ft 441 kts 233°
2026-04-21 05:37 26.91701 116.20548 40015 ft 442 kts 233°
2026-04-21 05:37 26.87530 116.15476 40017 ft 443 kts 233°
2026-04-21 05:38 26.83362 116.10394 40016 ft 444 kts 233°
2026-04-21 05:38 26.79181 116.05305 40015 ft 444 kts 233°
2026-04-21 05:39 26.74989 116.00215 40015 ft 445 kts 233°
2026-04-21 05:39 26.70795 115.95130 40014 ft 445 kts 233°
2026-04-21 05:40 26.66588 115.90033 40017 ft 446 kts 233°
2026-04-21 05:40 26.62371 115.84930 40012 ft 446 kts 233°
2026-04-21 05:41 26.58158 115.79837 40010 ft 446 kts 233°
2026-04-21 05:41 26.53963 115.74774 40008 ft 447 kts 233°
2026-04-21 05:42 26.49730 115.69669 40004 ft 448 kts 233°
2026-04-21 05:42 26.45490 115.64563 40005 ft 449 kts 233°
2026-04-21 05:43 26.41239 115.59451 40005 ft 449 kts 233°
2026-04-21 05:43 26.37700 115.55200 39999 ft 449 kts 233°
2026-04-21 05:44 26.33449 115.50097 40001 ft 449 kts 233°
2026-04-21 05:44 26.29194 115.44994 39996 ft 450 kts 233°
2026-04-21 05:45 26.24932 115.39889 39993 ft 450 kts 233°
2026-04-21 05:45 26.20667 115.34787 39988 ft 450 kts 233°
2026-04-21 05:46 26.16394 115.29681 39989 ft 451 kts 233°
2026-04-21 05:46 26.12113 115.24573 39994 ft 451 kts 233°
2026-04-21 05:47 26.07826 115.19462 39987 ft 452 kts 233°
2026-04-21 05:47 26.03534 115.14351 39981 ft 452 kts 233°
2026-04-21 05:48 25.99232 115.09234 39981 ft 453 kts 234°
2026-04-21 05:48 25.94924 115.04117 39973 ft 453 kts 234°
2026-04-21 05:49 25.90610 114.98998 39972 ft 454 kts 234°
2026-04-21 05:49 25.86290 114.93876 39972 ft 455 kts 234°
2026-04-21 05:50 25.81557 114.89115 39974 ft 465 kts 225°
2026-04-21 05:50 25.76308 114.84862 39969 ft 469 kts 223°
2026-04-21 05:51 25.70916 114.80770 39969 ft 470 kts 222°
2026-04-21 05:51 25.65483 114.76725 39968 ft 471 kts 222°
2026-04-21 05:52 25.60044 114.72674 39971 ft 471 kts 222°
2026-04-21 05:52 25.54606 114.68615 39973 ft 472 kts 222°
2026-04-21 05:53 25.49153 114.64544 39979 ft 473 kts 222°
2026-04-21 05:53 25.43733 114.60501 39973 ft 473 kts 222°
2026-04-21 05:54 25.38275 114.56433 39970 ft 473 kts 222°
2026-04-21 05:54 25.32819 114.52373 39977 ft 474 kts 222°
2026-04-21 05:55 25.27338 114.48297 39974 ft 474 kts 222°
2026-04-21 05:55 25.21862 114.44232 39975 ft 475 kts 222°
2026-04-21 05:56 25.16380 114.40165 39972 ft 475 kts 222°
2026-04-21 05:56 25.10888 114.36097 39968 ft 476 kts 222°
2026-04-21 05:57 25.05387 114.32026 39972 ft 476 kts 222°
2026-04-21 05:57 24.99887 114.27960 39976 ft 477 kts 222°
2026-04-21 05:58 24.94372 114.23889 39971 ft 477 kts 222°
2026-04-21 05:58 24.88862 114.19825 39977 ft 476 kts 222°
2026-04-21 05:59 24.83356 114.15766 39979 ft 476 kts 221°
2026-04-21 06:00 24.75085 114.09680 39978 ft 477 kts 221°
2026-04-21 06:00 24.69600 114.05649 39975 ft 477 kts 221°
2026-04-21 06:01 24.64079 114.01594 39969 ft 477 kts 221°
2026-04-21 06:01 24.58552 113.97539 39976 ft 478 kts 221°
2026-04-21 06:02 24.53022 113.93488 39974 ft 478 kts 221°
2026-04-21 06:02 24.47496 113.89446 39971 ft 478 kts 221°
2026-04-21 06:03 24.41946 113.85389 39966 ft 479 kts 221°
2026-04-21 06:03 24.36396 113.81337 39961 ft 479 kts 221°
2026-04-21 06:04 24.30841 113.77286 39967 ft 480 kts 221°
2026-04-21 06:04 24.25268 113.73224 39963 ft 481 kts 221°
2026-04-21 06:05 24.19702 113.69174 39970 ft 481 kts 220°
2026-04-21 06:05 24.14118 113.65114 39969 ft 482 kts 220°
2026-04-21 06:06 24.08568 113.61079 39968 ft 482 kts 220°
2026-04-21 06:06 24.02985 113.57029 39960 ft 482 kts 220°
2026-04-21 06:07 23.97394 113.52979 39959 ft 482 kts 220°
2026-04-21 06:07 23.91821 113.48944 39956 ft 482 kts 220°
2026-04-21 06:08 23.86204 113.44883 39958 ft 483 kts 220°
2026-04-21 06:08 23.80681 113.40893 39959 ft 483 kts 220°
2026-04-21 06:09 23.75069 113.36843 39953 ft 483 kts 220°
2026-04-21 06:09 23.69464 113.32803 39956 ft 483 kts 219°
2026-04-21 06:10 23.63844 113.28756 39953 ft 483 kts 219°
2026-04-21 06:10 23.58236 113.24721 39953 ft 484 kts 219°
2026-04-21 06:11 23.52611 113.20679 39952 ft 484 kts 219°
2026-04-21 06:11 23.46994 113.16645 39955 ft 484 kts 219°
2026-04-21 06:12 23.41369 113.12612 39954 ft 484 kts 219°
2026-04-21 06:12 23.35750 113.08588 39949 ft 483 kts 219°
2026-04-21 06:13 23.30132 113.04566 39946 ft 484 kts 219°
2026-04-21 06:13 23.24513 113.00547 39942 ft 484 kts 219°
2026-04-21 06:14 23.18927 112.96557 39937 ft 483 kts 219°
2026-04-21 06:14 23.13300 112.92543 39942 ft 483 kts 219°
2026-04-21 06:15 23.07678 112.88536 39934 ft 483 kts 219°
2026-04-21 06:15 23.02053 112.84530 39939 ft 484 kts 219°
2026-04-21 06:16 22.96433 112.80533 39937 ft 483 kts 219°
2026-04-21 06:16 22.90798 112.76529 39936 ft 484 kts 219°
2026-04-21 06:17 22.85167 112.72532 39941 ft 484 kts 219°
2026-04-21 06:17 22.79525 112.68531 39944 ft 484 kts 219°
2026-04-21 06:18 22.73891 112.64539 39940 ft 484 kts 219°
2026-04-21 06:18 22.68248 112.60545 39942 ft 485 kts 219°
2026-04-21 06:19 22.62609 112.56557 39950 ft 485 kts 219°
2026-04-21 06:19 22.56950 112.52559 39951 ft 485 kts 219°
2026-04-21 06:20 22.51296 112.48570 39951 ft 485 kts 218°
2026-04-21 06:20 22.45685 112.44615 39955 ft 485 kts 218°
2026-04-21 06:21 22.40028 112.40630 39960 ft 485 kts 218°
2026-04-21 06:21 22.34371 112.36650 39961 ft 485 kts 218°
2026-04-21 06:22 22.28703 112.32667 39962 ft 485 kts 218°
2026-04-21 06:22 22.23056 112.28702 39967 ft 485 kts 218°
2026-04-21 06:23 22.17377 112.24717 39964 ft 485 kts 218°
2026-04-21 06:23 22.11720 112.20754 39973 ft 485 kts 218°
2026-04-21 06:24 22.06057 112.16788 39972 ft 486 kts 218°
2026-04-21 06:24 22.00388 112.12822 39973 ft 486 kts 218°
2026-04-21 06:25 21.94706 112.08851 39974 ft 486 kts 218°
2026-04-21 06:25 21.89021 112.04883 39972 ft 486 kts 218°
2026-04-21 06:26 21.83385 112.00953 39972 ft 486 kts 217°
2026-04-21 06:26 21.77688 111.96983 39973 ft 486 kts 217°
2026-04-21 06:27 21.72005 111.93027 39971 ft 486 kts 217°
2026-04-21 06:27 21.66364 111.89104 39972 ft 486 kts 217°
2026-04-21 06:28 21.61595 111.85791 39972 ft 486 kts 217°
2026-04-21 06:28 21.56236 111.81427 39970 ft 480 kts 228°
2026-04-21 06:29 21.51014 111.75324 39971 ft 477 kts 232°
2026-04-21 06:29 21.46704 111.69886 39972 ft 477 kts 233°
2026-04-21 06:30 21.43123 111.65333 39973 ft 477 kts 233°
2026-04-21 06:30 21.38128 111.59023 39971 ft 477 kts 233°
2026-04-21 06:31 21.34537 111.54514 39970 ft 477 kts 232°
2026-04-21 06:31 21.30217 111.49099 39966 ft 478 kts 232°
2026-04-21 06:32 21.25890 111.43681 39965 ft 478 kts 232°
2026-04-21 06:32 21.21569 111.38276 39966 ft 478 kts 232°
2026-04-21 06:33 21.17235 111.32858 39963 ft 478 kts 232°
2026-04-21 06:33 21.12916 111.27463 39959 ft 478 kts 233°
2026-04-21 06:34 21.08568 111.22039 39959 ft 479 kts 232°
2026-04-21 06:34 21.04228 111.16630 39955 ft 479 kts 232°
2026-04-21 06:35 20.99894 111.11233 39952 ft 479 kts 232°
2026-04-21 06:35 20.95221 111.06151 39817 ft 480 kts 222°
2026-04-21 06:35 20.92418 111.04169 39217 ft 485 kts 212°
2026-04-21 06:36 20.89404 111.02516 38483 ft 489 kts 210°
2026-04-21 06:36 20.86337 111.00998 37638 ft 494 kts 208°
2026-04-21 06:36 20.83187 110.99522 36904 ft 494 kts 207°
2026-04-21 06:36 20.79985 110.98051 36201 ft 494 kts 207°
2026-04-21 06:37 20.76826 110.96599 35492 ft 494 kts 207°
2026-04-21 06:37 20.73696 110.95185 34800 ft 495 kts 206°
2026-04-21 06:37 20.70518 110.93784 34087 ft 495 kts 205°
2026-04-21 06:37 20.67324 110.92384 33299 ft 495 kts 205°
2026-04-21 06:38 20.64128 110.90989 32430 ft 497 kts 205°
2026-04-21 06:38 20.60927 110.89592 31550 ft 498 kts 205°
2026-04-21 06:38 20.57717 110.88187 30661 ft 500 kts 205°
2026-04-21 06:38 20.54496 110.86775 29751 ft 501 kts 205°
2026-04-21 06:39 20.51267 110.85358 28765 ft 502 kts 205°
2026-04-21 06:39 20.48046 110.83945 27884 ft 500 kts 205°
2026-04-21 06:39 20.44840 110.82538 27124 ft 496 kts 205°
2026-04-21 06:39 20.41658 110.81144 26402 ft 492 kts 205°
2026-04-21 06:40 20.38503 110.79760 25694 ft 488 kts 205°
2026-04-21 06:40 20.35372 110.78388 24988 ft 484 kts 204°
2026-04-21 06:40 20.32265 110.77027 24285 ft 481 kts 204°
2026-04-21 06:40 20.29180 110.75676 23598 ft 478 kts 204°
2026-04-21 06:41 20.26444 110.74478 22912 ft 475 kts 204°
2026-04-21 06:41 20.23675 110.73267 22261 ft 470 kts 204°
2026-04-21 06:41 20.20676 110.71956 21620 ft 463 kts 204°
2026-04-21 06:41 20.17718 110.70664 20955 ft 456 kts 204°
2026-04-21 06:42 20.14807 110.69392 20315 ft 450 kts 204°
2026-04-21 06:42 20.11926 110.68133 19711 ft 444 kts 204°
2026-04-21 06:42 20.09090 110.66895 19093 ft 437 kts 204°
2026-04-21 06:42 20.06295 110.65675 18474 ft 432 kts 204°
2026-04-21 06:43 20.03528 110.64468 17823 ft 427 kts 204°
2026-04-21 06:43 20.00832 110.63291 17126 ft 421 kts 204°
2026-04-21 06:43 19.98137 110.62115 16455 ft 416 kts 204°
2026-04-21 06:43 19.95470 110.60952 15765 ft 411 kts 204°
2026-04-21 06:44 19.92843 110.59806 15110 ft 405 kts 204°
2026-04-21 06:44 19.90270 110.58687 14760 ft 393 kts 204°
2026-04-21 06:44 19.88044 110.57549 14384 ft 364 kts 214°
2026-04-21 06:44 19.86261 110.55801 13922 ft 338 kts 234°
2026-04-21 06:45 19.85236 110.53649 13506 ft 318 kts 252°
2026-04-21 06:45 19.84904 110.51391 12954 ft 304 kts 265°
2026-04-21 06:45 19.84871 110.49180 12253 ft 296 kts 268°
2026-04-21 06:45 19.84886 110.47034 11543 ft 292 kts 269°
2026-04-21 06:46 19.84900 110.44894 10841 ft 288 kts 269°
2026-04-21 06:46 19.84905 110.42779 10149 ft 284 kts 268°
2026-04-21 06:46 19.84906 110.40694 9413 ft 281 kts 268°
2026-04-21 06:46 19.84903 110.38611 8777 ft 283 kts 268°
2026-04-21 06:47 19.84899 110.36528 8378 ft 281 kts 268°
2026-04-21 06:47 19.84895 110.34466 7985 ft 278 kts 268°
2026-04-21 06:47 19.84889 110.32418 7583 ft 277 kts 268°
2026-04-21 06:47 19.84882 110.30373 7162 ft 276 kts 268°
2026-04-21 06:48 19.84876 110.28338 6763 ft 275 kts 268°
2026-04-21 06:48 19.84872 110.26314 6412 ft 274 kts 267°
2026-04-21 06:48 19.84865 110.24321 6222 ft 264 kts 267°
2026-04-21 06:48 19.84859 110.22411 6060 ft 255 kts 267°
2026-04-21 06:49 19.84853 110.20558 5893 ft 246 kts 267°
2026-04-21 06:49 19.84846 110.18776 5760 ft 237 kts 266°
2026-04-21 06:49 19.84843 110.17057 5642 ft 229 kts 269°
2026-04-21 06:49 19.85158 110.15405 5406 ft 231 kts 292°
2026-04-21 06:50 19.86244 110.14154 5087 ft 237 kts 329°
2026-04-21 06:50 19.87833 110.13748 4854 ft 236 kts 355°
2026-04-21 06:50 19.89471 110.13730 4654 ft 235 kts
2026-04-21 06:50 19.91108 110.13837 4405 ft 236 kts 11°
2026-04-21 06:51 19.92573 110.14575 4133 ft 234 kts 44°
2026-04-21 06:51 19.93370 110.16016 3888 ft 226 kts 79°
2026-04-21 06:51 19.93489 110.17658 3678 ft 221 kts 93°
2026-04-21 06:51 19.93428 110.19284 3429 ft 220 kts 96°
2026-04-21 06:52 19.93391 110.20887 3168 ft 221 kts 94°
2026-04-21 06:52 19.93389 110.22516 3013 ft 219 kts 92°
2026-04-21 06:52 19.93402 110.24093 2981 ft 206 kts 92°
2026-04-21 06:52 19.93419 110.25571 2984 ft 195 kts 92°
2026-04-21 06:53 19.93426 110.27000 2993 ft 193 kts 94°
2026-04-21 06:53 19.93423 110.28427 2876 ft 193 kts 94°
2026-04-21 06:53 19.93425 110.29854 2666 ft 193 kts 93°
2026-04-21 06:53 19.93434 110.31279 2389 ft 191 kts 93°
2026-04-21 06:54 19.93436 110.32663 2140 ft 184 kts 94°
2026-04-21 06:54 19.93446 110.33987 1895 ft 174 kts 93°
2026-04-21 06:54 19.93449 110.35223 1691 ft 162 kts 95°
2026-04-21 06:54 19.93449 110.36399 1483 ft 157 kts 94°
2026-04-21 06:55 19.93454 110.37525 1284 ft 147 kts 93°
2026-04-21 06:55 19.93456 110.38581 1089 ft 138 kts 94°
2026-04-21 06:55 19.93459 110.39580 939 ft 134 kts 95°
2026-04-21 06:55 19.93460 110.40569 779 ft 134 kts 95°
2026-04-21 06:56 19.93463 110.41579 597 ft 140 kts 93°
2026-04-21 06:56 19.93467 110.42608 414 ft 139 kts 95°
2026-04-21 06:56 19.93477 110.43625 199 ft 135 kts 91°
2026-04-21 06:56 19.93483 110.44606 67 ft 129 kts 92°
2026-04-21 06:57 19.93475 110.45402 75 ft 74 kts 90°
2026-04-21 06:57 19.93477 110.45693 76 ft 27 kts 89°
2026-04-21 06:57 19.93480 110.45894 75 ft 28 kts 89°